STARLINK-34056, 63841

Orbit data source: Space-Track

STARLINK-34056, 63841 is a payload satellite owned by SpaceX/Seattle (US) in LEO that was launched on Wed, 07 May 2025 UTC via an FALCON 9 launch vehicle from the Air Force Eastern Test Range (AFETR). Payload-class satellites include a variety of spacecraft equipped with specific instruments for various scientific and technological missions. These include communications satellites like Starlink; space stations such as the ISS; scientific satellites like the Hubble; Earth observation satellites from companies like Planet Labs, Umbra, and HawkEye 360; GPS; miniature CubeSats for education and research; and military/defense satellites.

Loading next visibility...
Identifier
63841, 2025-093F
Orbit
LEO
Last TLE update
17 hours ago
Origin
Manufacturer
SpaceX/Seattle
Mission
Operational spacecraft
Bus & Motor
STARLINK V2MO, Unknown motor
Mass
575 kg wet, ~530 kg dry
Launch date (UTC)
2025-05-07 (1 month ago)
Launch vehicle
FALCON 9
Launch site
Air Force Eastern Test Range (AFETR)
Object type
Payload
Rocket body
Debris
Shape & HBR
Unknown
Radar Cross Section
Large (>1 m²)

Expand to show TLE details & history

TLE from 17 hours ago
0 STARLINK-34056
1 63841U 25093F   25169.58439724  .00009093  00000-0  22484-3 0  9990
2 63841  43.0006 130.0403 0000659 245.0738 115.0050 15.40675956  7352
Epoch: 2025-06-18T14:01Z
TLE epoch observation values (Epoch: 2025-06-18T14:01:31.921Z)
Latitude
-0.00002°
Longitude
12.59293°
Altitude
444.077 km
Speed
7.647 km/s
True Right ascension
08h 40m 09s
True Declination
0° 00' 00"
Sunlit
Object was in daylight at epoch
Visualization orbit readout
Latitude
-36.75411°
Longitude
-118.6023°
Altitude
454.336 km
Speed
7.641 km/s
Apparent Right ascension
02h 30m 19s
Apparent Declination
-46° 18' 51"
Sunlit
Object is in daylight
Visualization observer readout
Local Sidereal Time
17:28:02
Azimuth
116.221° SE
Elevation
-57.386°
Doppler factor
1
Orbital elements
Apogee altitude
446.519 km
Perigee altitude
445.62 km
Semi-major axis
6,824.206 km
Eccentricity
0.00007
Inclination
43.0006°
RAAN
130.0403°
Arg. of periapsis
245.0738°
True anomaly
Unknown
Mean anomaly
115.005°
Eccentric anomaly
Unknown
Mean motion
3.85004 °/min
Orbital period
93.51 mins
BSTAR
0.00022484
Loading maneuver chart data...
Loading SW <> Apogee altitude chart data...
Loading historical data...
Loading historical data...
Loading historical data...
Loading historical data...
Loading historical data...
Loading historical data...
Loading historical data...

STARLINK-34056 Visibility forecast

Observer location: undefined°, undefined°

Span
Click to sort rows by Start time (UTC) header in descending order
Start Az.
Max El. time (UTC)
Max El. Az.
Max El.
End time (UTC)
End Az.
5 mins2025-06-20 00:28:31.436Z216.504° SW2025-06-20 00:30:31.436Z168.715° S32.608°2025-06-20 00:33:31.436Z85.018° E
5 mins2025-06-20 02:06:31.436Z271.57° WNW2025-06-20 02:08:31.436Z316.848° NNW39.966°2025-06-20 02:11:31.436Z67.592° E
5 mins2025-06-20 03:45:31.436Z300.519° NW2025-06-20 03:47:31.436Z30.363° NE37.638°2025-06-20 03:50:31.436Z84.728° E
5 mins2025-06-20 05:23:31.436Z276.262° WNW2025-06-20 05:25:31.436Z184.715° SSW40.661°2025-06-20 05:28:31.436Z124.128° SE
|